FIN3AM LPPT-EFHK

Flight info

Callsign FIN3AM
Flight time N/A
Altitude 38000
Route IXIDA DCT TOSDI DCT ZMR DCT NUBLO DCT RONSI DCT DELOG/N0459F400 DCT DIDIG DCT USODA DCT ERCUT DCT DITAL DCT ELCOB DCT PODEM DCT BAZOS DCT BELDI DCT VEKIN DCT ADUTO/N0455F390 DCT VICOT DCT ABFAD DCT ALASA DCT VIBAR DCT ALAMI DCT OKEVU DCT EVADI Y370 DIVAM
Aircraft A343/H-SDE2E3FGHIJ4J5M1RWXY/LB1D1

Departure

Time 2026-05-07 12:47
Airport Lisbon Humberto Delgado Airport (LPPT)

Arrival

Time N/A
Airport Helsinki Vantaa Airport (EFHK)
Time Latitude Longitude Altitude Speed Heading
2026-05-07 12:25 38.77488 -9.13168 341 ft 0 kts 78°
2026-05-07 12:33 38.77488 -9.13171 336 ft 2 kts 78°
2026-05-07 12:34 38.77482 -9.13204 349 ft 4 kts 78°
2026-05-07 12:34 38.77477 -9.13237 350 ft 4 kts 88°
2026-05-07 12:34 38.77481 -9.13270 351 ft 4 kts 117°
2026-05-07 12:34 38.77497 -9.13295 353 ft 4 kts 155°
2026-05-07 12:35 38.77510 -9.13301 353 ft 1 kts 168°
2026-05-07 12:35 38.77511 -9.13301 353 ft 0 kts 168°
2026-05-07 12:38 38.77503 -9.13299 353 ft 4 kts 168°
2026-05-07 12:38 38.77449 -9.13285 347 ft 11 kts 168°
2026-05-07 12:38 38.77368 -9.13265 352 ft 12 kts 171°
2026-05-07 12:38 38.77280 -9.13247 347 ft 14 kts 169°
2026-05-07 12:39 38.77185 -9.13221 352 ft 14 kts 168°
2026-05-07 12:39 38.77084 -9.13194 350 ft 15 kts 168°
2026-05-07 12:39 38.76980 -9.13166 348 ft 16 kts 168°
2026-05-07 12:39 38.76891 -9.13142 343 ft 11 kts 168°
2026-05-07 12:40 38.76818 -9.13123 350 ft 9 kts 173°
2026-05-07 12:40 38.76783 -9.13156 350 ft 6 kts 243°
2026-05-07 12:40 38.76774 -9.13208 352 ft 7 kts 258°
2026-05-07 12:40 38.76763 -9.13275 349 ft 10 kts 258°
2026-05-07 12:41 38.76745 -9.13372 357 ft 11 kts 248°
2026-05-07 12:41 38.76691 -9.13432 356 ft 10 kts 213°
2026-05-07 12:41 38.76652 -9.13496 357 ft 9 kts 253°
2026-05-07 12:41 38.76639 -9.13579 353 ft 10 kts 258°
2026-05-07 12:42 38.76630 -9.13639 360 ft 11 kts 258°
2026-05-07 12:42 38.76613 -9.13739 357 ft 12 kts 257°
2026-05-07 12:42 38.76595 -9.13847 353 ft 13 kts 258°
2026-05-07 12:42 38.76577 -9.13962 354 ft 14 kts 258°
2026-05-07 12:43 38.76510 -9.14089 361 ft 13 kts 235°
2026-05-07 12:43 38.76502 -9.14195 355 ft 12 kts 287°
2026-05-07 12:43 38.76518 -9.14243 352 ft 5 kts 292°
2026-05-07 12:43 38.76525 -9.14265 348 ft 4 kts 293°
2026-05-07 12:44 38.76532 -9.14286 353 ft 0 kts 292°
2026-05-07 12:44 38.76533 -9.14291 353 ft 0 kts 292°
2026-05-07 12:45 38.76535 -9.14295 353 ft 2 kts 292°
2026-05-07 12:45 38.76547 -9.14331 336 ft 7 kts 292°
2026-05-07 12:45 38.76568 -9.14392 334 ft 8 kts 302°
2026-05-07 12:45 38.76604 -9.14405 335 ft 5 kts
2026-05-07 12:46 38.76635 -9.14393 337 ft 2 kts 21°
2026-05-07 12:46 38.76639 -9.14390 337 ft 0 kts 22°
2026-05-07 12:46 38.76641 -9.14389 337 ft 0 kts 22°
2026-05-07 12:46 38.76719 -9.14348 347 ft 36 kts 22°
2026-05-07 12:47 38.77133 -9.14126 364 ft 91 kts 22°
2026-05-07 12:47 38.77868 -9.13733 372 ft 137 kts 22°
2026-05-07 12:47 38.78864 -9.13195 429 ft 169 kts 19°
2026-05-07 12:47 38.79928 -9.12522 994 ft 173 kts 31°
2026-05-07 12:48 38.80878 -9.11538 1555 ft 178 kts 38°
2026-05-07 12:48 38.81887 -9.10564 2151 ft 187 kts 29°
2026-05-07 12:48 38.83027 -9.09641 2629 ft 203 kts 23°
2026-05-07 12:48 38.84347 -9.08850 3030 ft 227 kts 23°
2026-05-07 12:49 38.85874 -9.07929 3430 ft 255 kts 25°
2026-05-07 12:49 38.87497 -9.06884 4182 ft 265 kts 26°
2026-05-07 12:49 38.89139 -9.05760 5099 ft 270 kts 31°
2026-05-07 12:49 38.90655 -9.04289 5975 ft 276 kts 42°
2026-05-07 12:50 38.92096 -9.02633 6872 ft 280 kts 44°
2026-05-07 12:50 38.93539 -9.00938 7798 ft 282 kts 44°
2026-05-07 12:50 38.95000 -8.99222 8672 ft 287 kts 44°
2026-05-07 12:50 38.96486 -8.97481 9574 ft 291 kts 44°
2026-05-07 12:51 38.97995 -8.95716 10299 ft 298 kts 43°
2026-05-07 12:51 38.99557 -8.93889 10643 ft 318 kts 43°
2026-05-07 12:51 39.01241 -8.91922 10950 ft 336 kts 43°
2026-05-07 12:51 39.03016 -8.89847 11294 ft 352 kts 43°
2026-05-07 12:52 39.04848 -8.87705 11932 ft 358 kts 42°
2026-05-07 12:52 39.06706 -8.85531 12580 ft 365 kts 42°
2026-05-07 12:52 39.08590 -8.83326 13357 ft 367 kts 42°
2026-05-07 12:52 39.10485 -8.81105 14057 ft 371 kts 41°
2026-05-07 12:53 39.12398 -8.78862 14722 ft 373 kts 41°
2026-05-07 12:53 39.14300 -8.76629 15393 ft 376 kts 41°
2026-05-07 12:53 39.16233 -8.74332 16040 ft 380 kts 43°
2026-05-07 12:53 39.18064 -8.71845 16701 ft 385 kts 46°
2026-05-07 12:54 39.19845 -8.69254 17410 ft 387 kts 47°
2026-05-07 12:54 39.21628 -8.66636 18084 ft 390 kts 46°
2026-05-07 12:54 39.23429 -8.63992 18645 ft 395 kts 46°
2026-05-07 12:54 39.25248 -8.61320 19157 ft 399 kts 46°
2026-05-07 12:55 39.27093 -8.58612 19699 ft 403 kts 46°
2026-05-07 12:55 39.28948 -8.55885 20261 ft 406 kts 46°
2026-05-07 12:55 39.30796 -8.53168 20785 ft 410 kts 45°
2026-05-07 12:55 39.32686 -8.50389 21302 ft 414 kts 45°
2026-05-07 12:56 39.34593 -8.47580 21806 ft 418 kts 45°
2026-05-07 12:56 39.36516 -8.44746 22320 ft 422 kts 45°
2026-05-07 12:56 39.38456 -8.41883 22852 ft 425 kts 44°
2026-05-07 12:56 39.40413 -8.38994 23318 ft 429 kts 44°
2026-05-07 12:57 39.42388 -8.36075 23719 ft 433 kts 44°
2026-05-07 12:57 39.44378 -8.33131 24126 ft 436 kts 44°
2026-05-07 12:57 39.46352 -8.30206 24563 ft 438 kts 44°
2026-05-07 12:57 39.48364 -8.27224 24946 ft 442 kts 44°
2026-05-07 12:58 39.50392 -8.24216 25316 ft 445 kts 44°
2026-05-07 12:58 39.52436 -8.21182 25730 ft 447 kts 44°
2026-05-07 12:58 39.54481 -8.18140 26187 ft 448 kts 43°
2026-05-07 12:58 39.56536 -8.15083 26515 ft 452 kts 43°
2026-05-07 12:59 39.58608 -8.11996 26861 ft 456 kts 43°
2026-05-07 12:59 39.60696 -8.08884 27210 ft 458 kts 43°
2026-05-07 12:59 39.62766 -8.05795 27576 ft 461 kts 43°
2026-05-07 12:59 39.64876 -8.02643 27917 ft 464 kts 43°
2026-05-07 13:00 39.67016 -7.99501 28226 ft 465 kts 41°
2026-05-07 13:00 39.69292 -7.96506 28526 ft 466 kts 38°
2026-05-07 13:00 39.71645 -7.93610 28883 ft 467 kts 37°
2026-05-07 13:00 39.74029 -7.90732 29189 ft 470 kts 37°
2026-05-07 13:01 39.76424 -7.87826 29488 ft 473 kts 37°
2026-05-07 13:01 39.78815 -7.84886 29846 ft 474 kts 37°
2026-05-07 13:01 39.81203 -7.81911 30108 ft 477 kts 37°
2026-05-07 13:01 39.83567 -7.78939 30364 ft 480 kts 38°
2026-05-07 13:02 39.85967 -7.75901 30597 ft 482 kts 38°
2026-05-07 13:02 39.88375 -7.72843 30800 ft 485 kts 38°
2026-05-07 13:02 39.90797 -7.69764 31031 ft 487 kts 38°
2026-05-07 13:02 39.93224 -7.66675 31266 ft 489 kts 38°
2026-05-07 13:03 39.95660 -7.63572 31564 ft 490 kts 38°
2026-05-07 13:03 39.98096 -7.60466 31874 ft 490 kts 37°
2026-05-07 13:03 40.00527 -7.57362 32282 ft 487 kts 37°
2026-05-07 13:03 40.02907 -7.54317 32789 ft 484 kts 37°
2026-05-07 13:04 40.05306 -7.51249 33112 ft 483 kts 36°
2026-05-07 13:04 40.07710 -7.48177 33316 ft 484 kts 36°
2026-05-07 13:04 40.10119 -7.45098 33583 ft 485 kts 36°
2026-05-07 13:04 40.12525 -7.42017 33871 ft 484 kts 36°
2026-05-07 13:05 40.14932 -7.38930 34098 ft 485 kts 36°
2026-05-07 13:05 40.17343 -7.35833 34329 ft 486 kts 37°
2026-05-07 13:05 40.19753 -7.32735 34573 ft 486 kts 37°
2026-05-07 13:05 40.22162 -7.29635 34803 ft 486 kts 37°
2026-05-07 13:06 40.24542 -7.26569 35041 ft 487 kts 37°
2026-05-07 13:06 40.26951 -7.23461 35357 ft 485 kts 37°
2026-05-07 13:06 40.29349 -7.20362 35668 ft 484 kts 38°
2026-05-07 13:06 40.31740 -7.17270 35945 ft 483 kts 38°
2026-05-07 13:07 40.34135 -7.14172 36147 ft 484 kts 38°
2026-05-07 13:07 40.36534 -7.11068 36315 ft 485 kts 38°
2026-05-07 13:07 40.38937 -7.07954 36508 ft 486 kts 39°
2026-05-07 13:07 40.41342 -7.04834 36690 ft 486 kts 39°
2026-05-07 13:08 40.43715 -7.01753 36898 ft 487 kts 39°
2026-05-07 13:08 40.46121 -6.98624 37107 ft 487 kts 39°
2026-05-07 13:08 40.48529 -6.95488 37297 ft 488 kts 39°
2026-05-07 13:08 40.50936 -6.92350 37474 ft 488 kts 39°
2026-05-07 13:09 40.53345 -6.89206 37699 ft 488 kts 40°
2026-05-07 13:09 40.55752 -6.86062 37844 ft 489 kts 40°
2026-05-07 13:09 40.60565 -6.79764 37867 ft 484 kts 40°
2026-05-07 13:10 40.65277 -6.73581 37866 ft 480 kts 40°
2026-05-07 13:10 40.70006 -6.67371 37867 ft 480 kts 40°
2026-05-07 13:11 40.74736 -6.61147 37867 ft 480 kts 40°
2026-05-07 13:11 40.79448 -6.54929 37861 ft 479 kts 40°
2026-05-07 13:12 40.84153 -6.48709 37869 ft 479 kts 40°
2026-05-07 13:12 40.88820 -6.42523 37867 ft 478 kts 41°
2026-05-07 13:13 40.93513 -6.36292 37875 ft 478 kts 41°
2026-05-07 13:13 40.98201 -6.30055 37877 ft 478 kts 41°
2026-05-07 13:14 41.02972 -6.23968 37872 ft 475 kts 38°
2026-05-07 13:14 41.07892 -6.18215 37875 ft 475 kts 37°
2026-05-07 13:15 41.12848 -6.12424 37876 ft 475 kts 37°
2026-05-07 13:15 41.17771 -6.06574 37880 ft 475 kts 38°
2026-05-07 13:16 41.22681 -6.00685 37858 ft 475 kts 39°
2026-05-07 13:16 41.27547 -5.94824 37876 ft 475 kts 39°
2026-05-07 13:17 41.32445 -5.88918 37879 ft 475 kts 39°
2026-05-07 13:17 41.37345 -5.83000 37880 ft 476 kts 39°
2026-05-07 13:18 41.42243 -5.77073 37889 ft 476 kts 39°
2026-05-07 13:18 41.47132 -5.71143 37868 ft 475 kts 39°
2026-05-07 13:19 41.52082 -5.65409 37891 ft 473 kts 33°
2026-05-07 13:19 41.57820 -5.61269 37872 ft 468 kts 22°
2026-05-07 13:20 41.63802 -5.57812 37887 ft 468 kts 20°
2026-05-07 13:20 41.69819 -5.54468 37876 ft 468 kts 20°
2026-05-07 13:21 41.75794 -5.51126 37878 ft 469 kts 20°
2026-05-07 13:21 41.81803 -5.47730 37882 ft 469 kts 20°
2026-05-07 13:22 41.87805 -5.44320 37882 ft 469 kts 20°
2026-05-07 13:22 41.93817 -5.40897 37880 ft 470 kts 20°
2026-05-07 13:23 41.99792 -5.37489 37880 ft 470 kts 20°
2026-05-07 13:23 42.05804 -5.34053 37883 ft 470 kts 20°
2026-05-07 13:24 42.11827 -5.30604 37888 ft 472 kts 21°
2026-05-07 13:24 42.14681 -5.28968 37888 ft 473 kts 21°
2026-05-07 13:41 42.15719 -5.28372 37881 ft 473 kts 21°
2026-05-07 13:42 42.21775 -5.24893 37889 ft 473 kts 21°
2026-05-07 13:42 42.27781 -5.21433 37889 ft 473 kts 21°
2026-05-07 13:43 42.33832 -5.17942 37888 ft 473 kts 21°
2026-05-07 13:43 42.39882 -5.14443 37889 ft 473 kts 21°
2026-05-07 13:44 42.45928 -5.10940 37889 ft 473 kts 21°
2026-05-07 13:44 42.51936 -5.07451 37894 ft 473 kts 21°
2026-05-07 13:45 42.57984 -5.03933 37886 ft 473 kts 21°
2026-05-07 13:45 42.64037 -5.00403 37887 ft 473 kts 21°
2026-05-07 13:46 42.70089 -4.96871 37891 ft 473 kts 21°
2026-05-07 13:46 42.76101 -4.93350 37888 ft 475 kts 21°
2026-05-07 13:47 42.82189 -4.89772 37891 ft 477 kts 21°
2026-05-07 13:47 42.88288 -4.86183 37893 ft 477 kts 21°
2026-05-07 13:48 42.94384 -4.82588 37890 ft 478 kts 21°
2026-05-07 13:48 43.00445 -4.79008 37889 ft 478 kts 21°
2026-05-07 13:49 43.06548 -4.75394 37893 ft 478 kts 21°
2026-05-07 13:49 43.12651 -4.71773 37892 ft 478 kts 21°
2026-05-07 13:50 43.18757 -4.68141 37896 ft 479 kts 21°
2026-05-07 13:50 43.24825 -4.64525 37890 ft 478 kts 22°
2026-05-07 13:51 43.30930 -4.60877 37892 ft 479 kts 21°
2026-05-07 13:51 43.37034 -4.57223 37893 ft 479 kts 22°
2026-05-07 13:52 43.43158 -4.53550 37897 ft 481 kts 22°
2026-05-07 13:52 43.49300 -4.49858 37899 ft 482 kts 22°
2026-05-07 13:53 43.55406 -4.46179 37913 ft 482 kts 22°
2026-05-07 13:53 43.61558 -4.42463 37903 ft 483 kts 22°
2026-05-07 13:54 43.67723 -4.38731 37906 ft 484 kts 22°
2026-05-07 13:54 43.73887 -4.34991 37902 ft 484 kts 22°
2026-05-07 13:55 43.80006 -4.31270 37896 ft 484 kts 22°
2026-05-07 13:55 43.86173 -4.27512 37910 ft 484 kts 22°
2026-05-07 13:56 43.92339 -4.23746 37901 ft 484 kts 22°
2026-05-07 13:56 43.98499 -4.19975 37908 ft 484 kts 22°
2026-05-07 13:57 44.04662 -4.16193 37913 ft 484 kts 22°
2026-05-07 13:57 44.10774 -4.12434 37915 ft 484 kts 22°
2026-05-07 13:58 44.16929 -4.08640 37939 ft 484 kts 22°
2026-05-07 13:58 44.23079 -4.04841 37933 ft 483 kts 22°
2026-05-07 13:59 44.29219 -4.01039 37935 ft 483 kts 22°
2026-05-07 13:59 44.35074 -3.96565 37939 ft 484 kts 32°
2026-05-07 14:00 44.40659 -3.91284 37945 ft 485 kts 33°
2026-05-07 14:00 44.46183 -3.85869 37947 ft 485 kts 34°
2026-05-07 14:01 44.51702 -3.80436 37947 ft 485 kts 34°
2026-05-07 14:01 44.57204 -3.75031 37953 ft 486 kts 34°
2026-05-07 14:02 44.62748 -3.69584 37949 ft 487 kts 34°
2026-05-07 14:02 44.68292 -3.64126 37957 ft 487 kts 34°
2026-05-07 14:03 44.73832 -3.58659 37958 ft 487 kts 34°
2026-05-07 14:03 44.79335 -3.53214 37962 ft 487 kts 34°
2026-05-07 14:04 44.84869 -3.47726 37964 ft 487 kts 34°
2026-05-07 14:04 44.90402 -3.42226 37957 ft 487 kts 34°
2026-05-07 14:05 44.95946 -3.36701 37969 ft 488 kts 34°
2026-05-07 14:05 45.01490 -3.31162 37968 ft 488 kts 34°
2026-05-07 14:06 45.06998 -3.25646 37966 ft 488 kts 34°
2026-05-07 14:06 45.12539 -3.20085 37971 ft 488 kts 34°
2026-05-07 14:07 45.18075 -3.14514 37972 ft 488 kts 34°
2026-05-07 14:07 45.23611 -3.08931 37971 ft 488 kts 34°
2026-05-07 14:08 45.29106 -3.03373 37977 ft 489 kts 35°
2026-05-07 14:08 45.34650 -2.97754 37986 ft 489 kts 35°
2026-05-07 14:09 45.40189 -2.92126 37982 ft 489 kts 35°
2026-05-07 14:09 45.45730 -2.86482 37978 ft 490 kts 35°
2026-05-07 14:10 45.51228 -2.80869 37984 ft 490 kts 35°
2026-05-07 14:10 45.56760 -2.75205 37989 ft 489 kts 35°
2026-05-07 14:11 45.62281 -2.69540 37983 ft 489 kts 35°
2026-05-07 14:11 45.67801 -2.63861 37989 ft 489 kts 35°
2026-05-07 14:12 45.73284 -2.58207 37988 ft 489 kts 35°
2026-05-07 14:12 45.78797 -2.52508 37989 ft 488 kts 35°
2026-05-07 14:13 45.84304 -2.46800 37987 ft 488 kts 35°
2026-05-07 14:13 45.89802 -2.41087 37989 ft 488 kts 35°
2026-05-07 14:14 45.95267 -2.35396 37997 ft 488 kts 36°
2026-05-07 14:14 46.00762 -2.29657 37996 ft 488 kts 36°
2026-05-07 14:15 46.06259 -2.23910 37996 ft 488 kts 35°
2026-05-07 14:15 46.11898 -2.18467 37995 ft 488 kts 32°
2026-05-07 14:16 46.17578 -2.13223 37986 ft 488 kts 32°
2026-05-07 14:16 46.23270 -2.07905 38000 ft 487 kts 32°
2026-05-07 14:17 46.28942 -2.02531 37993 ft 487 kts 33°
2026-05-07 14:17 46.34598 -1.97134 37993 ft 487 kts 33°
2026-05-07 14:18 46.40252 -1.91725 37986 ft 487 kts 33°
2026-05-07 14:18 46.45858 -1.86350 37985 ft 486 kts 33°
2026-05-07 14:19 46.51502 -1.80928 37991 ft 487 kts 33°
2026-05-07 14:19 46.57144 -1.75494 37991 ft 486 kts 33°
2026-05-07 14:20 46.62775 -1.70057 37988 ft 486 kts 33°
2026-05-07 14:20 46.68358 -1.64652 37990 ft 485 kts 33°
2026-05-07 14:21 46.73980 -1.59196 37990 ft 485 kts 33°
2026-05-07 14:21 46.79598 -1.53730 37992 ft 485 kts 33°
2026-05-07 14:22 46.85209 -1.48256 37990 ft 485 kts 33°
2026-05-07 14:22 46.90818 -1.42770 37991 ft 485 kts 33°
2026-05-07 14:23 46.96325 -1.37174 37999 ft 486 kts 39°
2026-05-07 14:23 47.01103 -1.30207 37990 ft 485 kts 47°
2026-05-07 14:24 47.05637 -1.22869 37979 ft 485 kts 48°
2026-05-07 14:24 47.10120 -1.15463 37994 ft 486 kts 48°
2026-05-07 14:25 47.14580 -1.08101 37986 ft 486 kts 48°
2026-05-07 14:25 47.19076 -1.00691 37992 ft 486 kts 48°
2026-05-07 14:26 47.23573 -0.93269 37991 ft 486 kts 48°
2026-05-07 14:26 47.28067 -0.85834 37993 ft 486 kts 48°
2026-05-07 14:27 47.32557 -0.78382 37995 ft 486 kts 48°
2026-05-07 14:27 47.37011 -0.70969 37998 ft 486 kts 48°
2026-05-07 14:28 47.41489 -0.63495 38008 ft 486 kts 48°
2026-05-07 14:28 47.46410 -0.56699 38013 ft 485 kts 38°
2026-05-07 14:29 47.51765 -0.50633 38017 ft 485 kts 36°
2026-05-07 14:29 47.57180 -0.44684 38020 ft 485 kts 36°
2026-05-07 14:30 47.62558 -0.38766 38021 ft 484 kts 36°
2026-05-07 14:30 47.67954 -0.32787 38019 ft 484 kts 36°
2026-05-07 14:31 47.73340 -0.26789 38018 ft 484 kts 36°
2026-05-07 14:31 47.78717 -0.20783 38014 ft 484 kts 36°
2026-05-07 14:32 47.84058 -0.14802 38008 ft 483 kts 36°
2026-05-07 14:32 47.89419 -0.08784 38012 ft 483 kts 36°
2026-05-07 14:33 47.94778 -0.02752 38012 ft 483 kts 36°
2026-05-07 14:33 48.00135 0.03293 38019 ft 483 kts 36°
2026-05-07 14:34 48.05451 0.09310 38021 ft 482 kts 36°
2026-05-07 14:34 48.10795 0.15372 38018 ft 482 kts 36°
2026-05-07 14:35 48.16135 0.21447 38019 ft 482 kts 36°
2026-05-07 14:35 48.21471 0.27534 38019 ft 482 kts 36°
2026-05-07 14:36 48.26802 0.33632 38020 ft 482 kts 36°
2026-05-07 14:36 48.32094 0.39699 38019 ft 482 kts 37°
2026-05-07 14:37 48.37415 0.45817 38019 ft 481 kts 36°
2026-05-07 14:37 48.45379 0.55008 38025 ft 481 kts 37°
2026-05-07 14:38 48.50645 0.61105 38023 ft 480 kts 37°
2026-05-07 14:38 48.55939 0.67251 38023 ft 480 kts 37°
2026-05-07 14:39 48.61226 0.73405 38026 ft 480 kts 37°
2026-05-07 14:39 48.66513 0.79576 38031 ft 480 kts 37°
2026-05-07 14:40 48.71793 0.85755 38025 ft 479 kts 37°
2026-05-07 14:40 48.77034 0.91887 38030 ft 479 kts 36°
2026-05-07 14:41 48.82348 0.97996 38035 ft 479 kts 36°
2026-05-07 14:41 48.87663 1.04096 38037 ft 479 kts 36°
2026-05-07 14:42 48.92972 1.10224 38046 ft 479 kts 36°
2026-05-07 14:42 48.98236 1.16327 38048 ft 479 kts 36°
2026-05-07 14:43 49.03464 1.22627 38053 ft 480 kts 41°
2026-05-07 14:43 49.08379 1.29519 38055 ft 480 kts 43°
2026-05-07 14:44 49.13227 1.36514 38043 ft 480 kts 43°
2026-05-07 14:44 49.18029 1.43490 38048 ft 480 kts 43°
2026-05-07 14:45 49.22866 1.50521 38047 ft 480 kts 43°
2026-05-07 14:45 49.27703 1.57558 38051 ft 480 kts 43°
2026-05-07 14:46 49.32538 1.64602 38050 ft 479 kts 43°
2026-05-07 14:46 49.37362 1.71661 38061 ft 479 kts 43°
2026-05-07 14:47 49.42179 1.78727 38056 ft 479 kts 43°
2026-05-07 14:47 49.46962 1.85762 38058 ft 479 kts 43°
2026-05-07 14:48 49.51769 1.92853 38052 ft 479 kts 43°
2026-05-07 14:48 49.56578 1.99964 38051 ft 479 kts 43°
2026-05-07 14:49 49.61376 2.07087 38053 ft 479 kts 43°
2026-05-07 14:49 49.66170 2.14225 38057 ft 479 kts 43°
2026-05-07 14:50 49.70931 2.21334 38062 ft 479 kts 43°
2026-05-07 14:50 49.72202 2.23234 38064 ft 479 kts 43°
2026-05-07 15:00 49.74097 2.26071 38059 ft 479 kts 43°